Starlink 35354

operational
NORAD ID: 66477 Int'l Des: 2025-262 Owner: SPXS Country: US Constellation: starlink
NOTLE

About Starlink 35354

Description loading...

Live Position

Loading 3D Globe...

Upcoming Passes

Altitude History

Altitude vs Time

uPlot chart will show altitude changes over time

Two-Line Element Set

1 66477U 25262X 25338.75002315 -.02134240 00000-0 -36358-1 0 9995
2 66477 42.9996 117.7590 0001632 276.8015 97.3241 15.53911423 4354
Epoch: Dec 4, 2025 • Age: 13 hours

Current Status

Altitude 414.7 km
Velocity 7.67 km/s
Sub-Earth Point 34.97°N, 9.42°W
Launch Date Nov 15, 2025
Age 20 days
Type internet

Technical Details

Classification Payload
Mass 575.00 kg
Dry Mass 530.00 kg
Total Mass 575.00 kg
Length 0.30 m
Diameter 4.10 m
Span 29.00 m
Shape Box + pan
Manufacturer SPXS
Bus Type Starlink V2MO
Phase Status In Orbit
Owner/State SPXS/US

Large Constellations

Loading constellations...